Location: Pace/Milton
(30.6162°N, 87.1503°W)
Time: 09:30:08
(UTC-06:00)

N. Korean satellite - Visible Passes

Search period start: 28 November 2021 00:00
Search period end: 08 December 2021 00:00
Orbit: 447 x 495 km, 97.3° (Epoch: 27 November)

Date Brightness Start Highest point End Pass type
(mag) Time Alt. Az. Time Alt. Az. Time Alt. Az.
28 Nov 6.4 04:55:56 10° NNE 04:59:19 82° ESE 05:02:40 10° S visible
29 Nov 8.5 04:27:54 10° NE 04:30:50 27° E 04:33:45 10° SSE visible
29 Nov 8.5 06:03:16 10° WNW 06:03:41 10° WNW 06:04:06 10° WNW visible
30 Nov 10.0 04:01:29 10° E 04:02:15 11° E 04:03:01 10° ESE visible
30 Nov 7.4 05:32:36 10° NNW 05:35:26 25° WNW 05:38:15 10° SW visible
01 Dec 6.2 05:03:42 10° N 05:07:04 73° WNW 05:10:25 10° SSW visible
02 Dec 8.0 04:35:28 10° NNE 04:38:36 36° E 04:41:43 10° SSE visible
03 Dec 9.6 04:08:12 10° ENE 04:10:02 14° E 04:11:51 10° SE visible
03 Dec 7.7 05:40:36 10° NNW 05:43:07 20° WNW 05:45:37 10° WSW visible
04 Dec 6.4 05:11:27 10° N 05:14:46 53° WNW 05:18:03 10° SSW visible
04 Dec 9.7 17:14:03 10° SW 17:16:20 16° W 17:18:37 10° NW visible
05 Dec 7.3 04:43:00 10° NNE 04:46:17 48° E 04:49:34 10° S visible
06 Dec 9.3 04:15:20 10° NE 04:17:43 18° E 04:20:05 10° SE visible
06 Dec 8.0 05:48:38 10° NW 05:50:42 16° WNW 05:52:48 10° WSW visible
07 Dec 6.8 05:19:10 10° N 05:22:22 39° WNW 05:25:32 10° SW visible
07 Dec 10.0 17:22:27 10° WSW 17:24:00 12° W 17:25:34 10° WNW visible
